This is the latest recevied weather packets stored in our database for station/object N1SU-13. If no packets are shown the sender has not sent any weather packets the latest 10 day(s).
| Time | Temp. | Humidity | Pressure | Rain* | Wind** | Luminosity | Snow |
|---|---|---|---|---|---|---|---|
| 1788022705 | 12.22° C | 90% | 1016.1 hPa | 0 mm | - | - | - |
| 1788022107 | 12.22° C | 90% | 1015.9 hPa | 0 mm | - | - | - |
| 1788021502 | 12.22° C | 91% | 1015.9 hPa | 0.25 mm | - | - | - |
| 1788020908 | 12.22° C | 91% | 1015.8 hPa | 0.51 mm | - | - | - |
| 1788020232 | 11.67° C | 92% | 1015.6 hPa | 0.76 mm | - | - | - |
| 1788019656 | 11.67° C | 93% | 1015.7 hPa | 1.52 mm | - | - | - |
| 1788018966 | 11.11° C | 93% | 1015.5 hPa | 2.29 mm | - | - | - |
| 1788018334 | 11.11° C | 94% | 1015.3 hPa | 3.05 mm | - | - | - |
| 1788017755 | 11.11° C | 94% | 1015.3 hPa | 2.54 mm | - | - | - |
| 1788016972 | 11.11° C | 94% | 1015.6 hPa | 3.56 mm | - | - | - |
| 1788016375 | 11.11° C | 94% | 1015.8 hPa | 5.33 mm | - | - | - |
| 1788015707 | 11.11° C | 95% | 1015.9 hPa | 5.84 mm | - | - | - |
| 1788015069 | 11.11° C | 96% | 1015.8 hPa | 5.33 mm | - | - | - |
| 1788014431 | 11.11° C | 96% | 1015.7 hPa | 4.83 mm | - | - | - |
| 1788013773 | 11.11° C | 95% | 1015.4 hPa | 4.57 mm | - | - | - |
| 1788013072 | 11.67° C | 94% | 1015.1 hPa | 2.54 mm | - | - | - |
| 1788012428 | 11.67° C | 93% | 1014.9 hPa | 0.25 mm | - | - | - |
| 1788011731 | 11.67° C | 91% | 1014.7 hPa | 0 mm | - | - | - |
| 1788011120 | 11.67° C | 92% | 1014.7 hPa | 0 mm | - | - | - |
| 1788010472 | 11.67° C | 93% | 1014.6 hPa | 0 mm | - | - | - |
| 1788009855 | 11.67° C | 92% | 1014.6 hPa | 0 mm | - | - | - |
| 1788009256 | 12.22° C | 91% | 1014.6 hPa | 0 mm | - | - | - |
| 1788008579 | 12.22° C | 91% | 1014.6 hPa | 0 mm | - | - | - |
| 1788007952 | 12.22° C | 91% | 1014.5 hPa | 0 mm | - | - | - |
| 1788007297 | 12.22° C | 90% | 1014.5 hPa | 0 mm | - | - | - |
* Rain latest hour (hover to see other rain measurements)
** Current wind speed in m/s (hover to see current wind gust speed)